Theta_e
361 360 359 358 357 356 354 354 353 353 352 352 351 349 348 347 346 344 343 342 342 342 341 340 339 337 336 337 337 337 337 337 336 337 338 337 336 336 336 336 335 336
361 361 360 358 357 357 356 354 354 353 352 352 351 349 348 347 345 344 343 343 342 341 341 340 339 338 337 336 336 337 337 337 337 337 338 339 338 337 336 336 336 336
363 362 360 358 356 356 355 354 355 354 352 353 352 350 349 346 345 344 343 342 342 342 341 340 339 338 337 336 337 336 336 337 337 337 338 339 338 337 336 336 336 336
365 362 361 358 356 355 355 354 355 355 352 353 353 352 349 347 345 345 344 342 342 342 341 340 339 338 338 337 337 336 336 336 336 335 336 337 338 337 336 335 335 335
366 364 362 360 357 356 356 355 356 355 353 353 354 352 349 348 345 344 344 344 343 343 341 340 339 338 338 338 337 337 336 335 335 335 336 336 335 335 335 335 335 334
367 366 364 362 360 359 358 357 356 354 353 354 354 351 349 349 346 344 344 344 343 342 341 340 340 339 338 338 338 337 337 336 335 335 336 336 335 334 334 334 334 334
367 366 365 364 363 361 359 358 355 352 353 354 353 349 348 348 346 344 345 345 343 342 341 340 340 339 337 337 337 337 337 337 336 336 336 336 336 335 334 334 334 334
368 367 365 363 364 362 361 358 353 350 352 353 350 347 345 344 341 341 343 344 343 343 342 341 340 339 336 335 335 336 337 337 336 336 336 336 335 335 335 334 334 334
368 367 364 363 364 361 359 355 352 352 352 350 346 343 341 338 336 338 341 341 341 341 341 341 340 338 336 335 336 337 338 337 336 336 336 335 335 335 335 334 334 334
366 365 363 363 361 359 357 353 351 352 349 344 340 338 336 336 337 339 339 338 337 337 337 338 339 339 337 335 336 338 338 337 337 337 336 335 335 335 334 333 333 333
366 364 362 360 358 356 355 350 350 351 347 342 338 334 334 335 333 331 330 328 329 331 333 335 336 337 338 337 337 338 338 337 337 337 336 335 336 336 335 334 333 333
364 361 359 357 355 355 352 345 347 349 346 343 339 334 334 334 328 323 321 323 323 324 329 332 333 336 338 339 338 337 338 337 337 337 336 336 336 336 335 334 334 333
362 358 357 354 352 353 347 339 340 341 341 342 340 336 334 331 326 321 320 323 323 323 326 330 333 337 339 340 339 337 337 338 337 337 337 336 336 336 335 334 333 332
359 356 354 351 351 350 344 336 332 330 334 340 339 336 335 331 329 323 320 322 325 327 329 330 334 338 340 340 340 338 338 338 337 337 337 336 335 336 335 334 332 331
356 353 351 349 349 348 340 333 330 330 336 341 339 337 335 333 333 327 321 322 326 330 333 333 335 339 340 339 338 338 339 339 337 337 337 336 334 334 336 336 334 333
353 350 348 348 348 347 340 335 335 337 340 340 337 336 334 333 333 327 322 324 328 333 337 337 337 339 339 337 335 336 337 338 338 337 336 336 335 335 336 336 334 334
349 347 347 347 347 346 343 341 342 340 337 334 332 332 332 334 334 328 326 331 335 337 339 338 338 337 337 336 334 333 334 336 337 337 336 336 335 334 334 335 335 335
347 345 345 345 345 345 345 346 344 338 332 329 329 329 331 333 331 328 330 335 339 339 338 338 337 337 337 335 333 333 334 335 336 337 337 336 335 335 336 337 338 336
346 343 343 343 343 344 346 347 342 336 333 329 329 330 331 331 331 333 336 339 340 339 337 337 338 338 336 334 333 334 335 335 335 335 335 334 335 337 338 339 340 338
347 344 342 342 342 341 343 345 341 337 333 331 332 334 334 334 336 338 340 340 340 339 338 338 339 338 336 334 335 335 335 336 335 333 332 332 334 335 335 336 338 338
349 346 343 342 342 341 342 343 342 339 335 335 337 338 337 338 340 340 340 340 340 338 338 340 339 337 335 334 334 332 332 335 336 334 333 333 333 334 333 333 334 334
349 347 345 344 342 342 342 342 343 341 340 340 341 340 339 339 339 340 340 340 339 337 338 340 338 335 335 334 332 330 331 335 336 335 334 333 335 336 334 333 333 332
348 346 345 344 344 343 344 344 344 344 344 344 342 340 340 340 339 340 340 340 339 338 338 339 337 335 334 333 333 332 333 335 335 335 335 334 336 335 332 331 330 329
347 345 344 345 345 345 345 345 345 345 345 345 343 341 340 340 340 340 340 340 339 338 338 337 336 335 332 331 331 330 331 334 335 334 334 332 333 334 333 330 328 327
346 345 344 345 345 346 345 345 345 345 344 344 343 343 342 340 340 339 339 339 337 337 337 335 335 334 331 328 327 326 327 332 332 331 330 328 329 332 333 331 330 329
348 347 345 345 345 344 344 343 343 343 343 343 343 342 341 339 338 338 338 338 336 335 335 333 333 333 330 327 327 327 329 331 330 328 327 328 330 332 333 333 331 329
Wind_Speed
23 22 21 21 20 18 17 15 14 12 10 9 9 8 9 9 9 10 9 9 9 9 8 7 7 7 6 6 6 6 6 6 6 6 7 7 7 7 7 7 8 7
24 22 21 21 20 18 17 16 14 12 11 10 9 8 8 9 9 9 9 8 9 9 8 8 8 7 7 6 7 7 7 7 7 7 8 8 8 8 8 9 9 9
25 24 24 23 21 20 18 16 15 13 11 10 10 9 9 9 9 9 9 9 9 9 9 9 8 8 8 7 7 8 8 8 9 8 8 9 9 9 9 9 9 9
26 26 25 23 21 19 18 17 16 14 13 11 10 10 10 10 9 9 9 10 9 9 9 9 9 8 8 8 8 8 8 9 9 9 9 9 9 9 10 9 10 9
26 25 24 22 21 19 18 18 17 15 14 11 11 12 12 11 10 10 10 10 10 9 9 9 9 9 9 9 9 8 8 9 10 10 10 10 9 10 10 10 10 10
24 24 23 22 21 20 20 18 17 16 14 12 12 14 13 11 10 9 9 9 9 9 9 9 9 10 9 9 9 9 8 9 9 9 10 10 10 10 10 10 10 10
24 24 24 23 23 23 21 19 18 16 14 13 14 13 11 9 9 9 8 8 8 8 9 9 9 10 9 9 9 9 9 9 9 10 10 10 9 9 10 10 10 11
25 26 26 25 23 22 20 18 18 16 14 13 11 11 10 8 8 9 8 8 9 10 10 10 10 10 10 10 10 10 9 9 10 10 11 10 10 10 10 10 10 11
27 26 26 25 24 23 21 18 16 16 15 11 6 4 6 6 8 10 10 10 11 13 14 13 12 13 12 12 11 11 11 11 11 11 12 11 11 10 10 10 11 12
27 26 26 26 24 23 22 19 15 12 12 10 7 2 4 3 6 9 10 11 12 15 17 17 16 15 15 15 14 13 13 12 12 12 13 12 12 11 11 11 12 13
25 24 24 24 23 25 26 23 18 15 13 13 11 4 3 5 8 12 14 15 16 17 20 21 21 19 18 17 16 15 14 13 13 13 13 13 13 12 12 12 13 14
21 19 19 18 21 27 30 28 23 19 17 17 15 11 11 16 21 23 23 24 23 23 24 25 24 22 20 18 17 15 14 14 13 13 14 14 14 13 13 13 14 15
24 25 27 25 23 28 33 32 27 24 23 22 21 23 28 31 31 32 34 33 32 30 28 26 25 23 21 19 17 16 15 14 14 14 14 14 15 14 13 14 16 17
27 29 31 31 29 30 32 31 31 33 32 29 29 35 41 42 41 43 43 41 38 34 30 27 25 23 21 19 18 16 15 15 14 14 14 15 15 14 14 15 17 17
23 24 26 28 29 31 31 32 36 40 40 39 41 44 47 47 47 46 45 43 40 35 30 28 26 22 21 22 20 18 17 16 15 15 15 15 15 15 15 15 16 17
24 26 29 31 32 33 36 42 46 46 45 46 47 46 46 46 45 44 44 42 36 31 29 28 26 22 21 23 22 20 19 18 16 15 15 15 16 16 15 16 17 17
27 30 33 36 38 39 42 46 50 50 49 47 46 45 45 46 46 45 40 31 25 26 27 26 25 24 23 22 20 20 22 20 18 17 16 16 16 16 17 19 18 16
29 33 36 38 41 44 47 50 52 51 49 47 46 46 47 48 47 42 33 23 21 24 25 24 24 24 22 21 21 21 22 23 20 17 16 17 17 17 17 17 16 16
31 34 36 39 43 47 50 52 51 48 46 47 47 47 46 44 39 32 25 22 22 23 21 20 20 21 21 21 22 22 21 21 20 18 17 18 18 15 14 12 11 11
32 34 35 37 42 47 50 51 49 47 45 45 45 44 41 35 27 23 21 22 23 24 21 16 15 19 22 20 19 21 20 18 19 20 19 20 19 17 14 10 7 7
30 31 32 34 37 42 46 47 47 46 44 40 36 33 31 26 21 19 20 22 23 23 20 16 15 18 20 19 20 23 21 18 17 18 19 19 19 17 13 10 7 5
27 28 30 32 34 36 38 38 39 38 34 28 24 21 21 20 18 18 19 21 22 21 18 15 14 15 17 19 22 24 21 17 15 16 19 19 17 14 12 10 8 5
27 30 30 30 30 30 30 29 28 26 23 20 19 18 17 17 17 16 17 19 20 20 18 15 15 17 18 19 20 20 16 13 11 12 14 16 16 15 15 14 11 9
31 34 33 28 25 25 25 22 20 19 18 16 16 17 17 17 17 17 17 18 19 19 19 17 16 18 20 22 21 18 15 13 12 10 10 15 17 16 16 15 13 13
31 35 34 28 23 22 21 18 16 16 15 14 14 16 17 17 17 18 17 17 17 18 19 18 17 17 20 22 22 21 20 16 13 12 14 18 19 16 13 9 7 7
29 31 30 26 24 23 20 17 16 14 14 13 13 15 16 17 17 17 16 16 16 16 17 16 16 17 18 20 21 21 19 16 13 14 16 17 15 12 9 5 4 3
Wind_Direction
219 219 217 217 218 218 217 217 217 221 227 229 232 236 233 229 225 222 223 220 211 206 205 206 205 205 208 210 211 216 218 219 221 218 217 221 229 238 249 256 261 268
218 217 216 215 216 215 215 215 215 219 224 227 231 236 233 229 227 226 224 216 208 206 206 207 207 209 214 218 219 223 228 230 234 233 228 231 237 242 249 256 260 266
215 216 216 215 215 214 214 214 213 214 219 224 225 224 222 222 221 218 215 210 207 206 208 211 212 211 215 220 222 228 236 240 243 245 242 241 245 249 253 258 263 267
212 214 214 215 217 216 214 213 212 211 216 221 217 211 209 209 209 206 205 205 207 210 210 214 217 217 218 220 224 232 241 247 249 252 252 251 251 254 258 261 263 264
209 210 211 212 213 212 211 210 209 212 216 214 209 210 208 202 200 202 202 202 206 212 215 217 220 222 223 222 226 234 242 250 252 250 249 250 252 255 257 259 260 260
205 205 203 201 199 201 206 206 206 210 211 206 210 215 206 197 201 201 199 203 210 218 221 221 222 225 228 227 229 234 241 252 257 252 248 247 250 255 256 256 257 257
199 198 194 192 191 196 198 197 202 210 212 210 213 212 198 192 204 204 201 207 216 226 226 225 226 229 232 232 231 235 240 249 255 254 250 247 247 250 251 253 255 256
194 190 189 187 183 183 181 183 195 205 210 210 204 201 198 207 227 223 216 219 223 231 233 229 230 231 234 236 237 238 239 244 249 248 245 244 244 245 246 251 254 254
193 186 184 181 176 174 169 173 190 200 203 196 174 189 210 227 253 248 237 237 237 240 241 237 232 231 231 233 235 235 236 240 245 246 246 244 242 242 245 250 251 251
192 184 178 175 172 164 154 159 175 181 178 165 149 255 293 295 280 268 257 252 249 249 249 244 235 230 229 230 230 231 232 235 239 243 245 244 241 241 245 249 251 250
188 177 173 173 163 151 150 159 166 163 161 161 162 188 311 307 276 268 262 255 248 247 247 244 240 233 228 227 228 229 230 232 237 240 242 242 240 240 244 249 252 253
179 163 159 155 147 151 158 162 164 169 181 190 196 212 231 238 245 252 253 248 241 237 237 240 241 236 230 227 228 229 230 231 235 238 240 243 243 244 246 249 251 252
170 170 172 169 167 169 166 163 171 188 197 200 211 226 226 222 228 237 243 242 237 232 231 231 234 235 231 228 227 228 229 230 234 239 242 245 248 250 251 253 255 254
164 171 174 175 174 168 161 165 183 198 204 205 212 222 224 222 225 231 234 234 231 228 225 224 226 228 228 228 227 228 230 232 235 240 244 248 251 252 252 255 259 260
146 150 154 156 156 155 162 180 192 197 203 208 212 220 224 225 228 231 230 230 228 226 224 223 221 219 224 231 231 229 232 237 240 243 246 250 255 256 258 259 263 267
138 146 155 163 166 169 178 190 196 198 202 208 212 219 223 226 229 231 229 230 229 227 225 224 221 220 224 231 233 233 238 241 242 244 246 251 256 259 266 272 274 273
151 158 168 178 182 183 186 191 196 199 203 206 211 217 224 228 229 229 227 227 226 227 227 224 225 228 229 231 234 239 244 245 244 245 245 249 256 263 271 276 276 273
164 169 173 178 181 184 188 193 196 198 202 205 210 218 223 225 225 223 221 217 216 223 228 227 230 234 233 233 234 236 242 245 246 248 247 248 255 263 269 273 275 276
167 170 170 173 178 184 190 193 196 199 202 206 211 216 218 217 216 216 214 211 211 217 226 229 233 235 233 235 235 233 236 241 243 247 251 252 255 260 265 266 266 274
166 167 167 171 179 186 189 193 198 203 207 209 210 213 213 210 210 209 209 211 211 216 223 225 227 232 232 232 234 231 232 238 241 242 248 254 258 262 267 266 254 262
165 164 166 172 180 186 190 194 201 207 211 212 212 213 213 211 209 208 211 216 216 217 222 221 224 234 232 226 229 232 234 241 240 236 242 253 257 259 264 269 269 271
163 163 168 176 181 186 191 196 202 208 212 213 213 213 212 211 212 212 215 221 218 214 217 216 215 224 223 220 224 227 229 237 241 242 248 250 247 249 256 263 272 282
165 169 174 179 182 186 191 196 201 206 209 210 211 213 212 212 215 216 220 222 212 202 205 209 209 218 224 221 219 221 226 233 236 241 252 252 242 238 242 247 257 277
173 178 179 181 184 188 190 194 200 204 206 207 209 211 213 214 217 221 222 218 207 198 204 213 214 218 225 225 224 231 239 235 219 215 243 263 261 253 248 251 261 276
176 181 183 183 184 184 184 188 194 198 201 203 205 211 217 221 224 227 223 218 216 212 211 220 223 220 226 234 239 243 243 234 224 226 244 259 264 263 263 262 263 273
175 180 182 181 180 180 180 182 185 189 193 197 204 214 223 226 227 226 222 224 231 224 214 219 227 226 234 243 241 236 232 228 230 241 249 253 252 248 248 233 203 220